SCP
0 0 0 0 0 0 0 0 0 0 0 0 0 0 0 0 0 0 0 0 0 0 0 0 0 0 0 0 0 0 0 0 0 0 0 0 0 0 0 0 0 0 0 0
0 0 0 0 0 0 0 0 0 0 0 0 0 0 0 0 0 0 0 0 0 0 0 0 0 0 0 0 0 0 0 0 0 0 0 0 0 0 0 0 0 0 0 0
0 0 0 0 0 0 0 0 0 0 0 0 0 0 0 0 0 0 0 0 0 0 0 0 0 0 0 0 0 0 0 0 0 0 0 0 0 0 0 0 0 0 0 0
0 0 0 0 0 0 0 0 0 0 0 0 0 0 0 0 0 0 0 0 0 0 0 0 0 0 0 0 0 0 0 0 0 0 0 0 0 0 0 0 0 0 0 0
0 0 0 0 0 0 0 0 0 0 0 0 0 0 0 0 0 0 0 0 0 0 0 0 0 0 0 0 0 0 0 0 0 0 0 0 0 0 0 0 0 0 0 0
0 0 0 0 0 0 0 0 0 0 0 0 0 0 0 0 0 0 0 0 0 0 0 0 0 0 0 0 0 0 0 0 0 0 0 0 0 0 0 0 0 0 0 0
0 0 0 0 0 0 0 0 0 0 0 0 0 0 0 0 0 0 0 0 0 0 0 0 0 0 0 0 0 0 0 0 0 0 0 0 0 0 0 0 0 0 0 0
0 0 0 0 0 0 0 0 0 0 0 0 0 0 0 0 0 0 0 0 0 0 0 0 0 0 0 0 0 0 0 0 0 0 0 0 0 0 0 0 0 0 0 0
0 0 0 0 0 0 0 0 0 0 0 0 0 0 0 0 0 0 0 0 0 0 0 0 0 0 0 0 0 0 0 0 0 0 0 0 0 0 0 0 0 0 0 0
0 0 0 0 0 0 0 0 0 0 0 0 0 0 0 0 0 0 0 0 0 0 0 0 0 0 0 0 0 0 0 0 0 0 0 0 0 0 0 0 0 0 0 0
0 0 0 0 0 0 0 0 0 0 0 0 0 0 0 0 0 0 0 0 0 0 0 0 0 0 0 0 0 0 0 0 0 0 0 0 0 0 0 0 0 0 0 0
0 0 0 0 0 0 0 0 0 0 0 0 0 0 0 0 0 0 0 0 0 0 0 0 0 0 0 0 0 0 0 0 0 0 0 0 0 0 0 0 0 0 0 0
0 0 0 0 0 0 0 0 0 0 0 0 0 0 0 0 0 0 0 0 0 0 0 0 0 0 0 0 0 0 0 0 0 0 0 0 0 0 0 0 0 0 0 0
0 0 0 0 0 0 0 0 0 0 0 0 0 0 0 0 0 0 0 0 0 0 0 0 0 0 0 0 0 0 0 0 0 0 0 0 0 0 0 0 0 0 0 0
0 0 0 0 0 0 0 0 0 0 0 0 0 0 0 0 0 0 0 0 0 0 0 0 0 0 0 0 0 0 0 0 0 0 0 0 0 0 0 0 0 0 0 0
0 0 0 0 0 0 0 0 0 0 0 0 0 0 0 0 0 0 0 0 0 0 0 0 0 0 0 0 0 0 0 0 0 0 0 0 0 0 0 0 0 0 0 0
0 0 0 0 0 0 0 0 0 0 0 0 0 0 0 0 0 0 0 0 0 0 0 0 0 0 0 0 0 0 0 0 0 0 0 0 0 0 0 0 0 0 0 0
0 0 0 0 0 0 0 0 0 0 0 0 0 0 0 0 0 0 0 0 0 0 0 0 0 0 0 0 0 0 0 0 0 0 0 0 0 0 0 0 0 0 0 0
0 0 0 0 0 0 0 0 0 0 0 0 0 0 0 0 0 0 0 0 0 0 0 0 0 0 0 0 0 0 0 0 0 0 0 0 0 0 0 0 0 0 0 0
0 0 0 0 0 0 0 0 0 0 0 0 0 0 0 0 0 0 0 0 0 0 0 0 0 0 0 0 0 0 0 0 0 0 0 0 0 0 0 0 0 0 0 0
0 0 0 0 0 0 0 0 0 0 0 0 0 0 0 0 0 0 0 0 0 0 0 0 0 0 0 0 0 0 0 0 0 0 0 0 0 0 0 0 0 0 0 0
0 0 0 0 0 0 0 0 0 0 0 0 0 0 0 0 0 0 0 0 0 0 0 0 0 0 0 0 0 0 0 0 0 0 0 0 0 0 0 0 0 0 0 0
0 0 0 0 0 0 0 0 0 0 0 0 0 0 0 0 0 0 0 0 0 0 0 0 0 0 0 0 0 0 0 0 0 0 0 0 0 0 0 0 0 0 0 0
0 0 0 0 0 0 0 0 0 0 0 0 0 0 0 0 0 0 0 0 0 0 0 0 0 0 0 0 0 0 0 0 0 0 0 0 0 0 0 0 0 0 0 0
0 0 0 0 0 0 0 0 0 0 0 0 0 0 0 0 0 0 0 0 0 0 0 0 0 0 0 0 0 0 0 0 0 0 0 0 0 0 0 0 0 0 -0 0
0 0 0 0 0 0 0 0 0 0 0 0 0 0 0 0 0 0 0 0 0 0 0 0 0 0 0 0 0 0 0 0 0 0 0 0 0 0 0 0 0 0 0 0
Wind_Speed_500mb
12 8 10 17 15 19 33 10 21 9 5 13 10 9 13 20 30 29 32 34 39 36 33 34 34 30 30 22 16 9 4 2 2 1 4 8 13 19 21 19 16 14 16 19
8 13 17 10 6 5 7 31 30 11 7 11 7 8 10 16 14 19 26 28 24 26 28 30 25 21 21 15 12 7 5 5 4 3 5 10 15 19 18 17 14 13 17 20
16 10 20 12 8 5 3 8 15 11 6 10 13 3 8 6 17 22 22 24 19 24 28 25 21 22 17 13 13 10 9 8 7 8 9 10 11 13 13 16 15 14 16 21
9 8 20 15 8 10 6 8 12 8 7 7 7 8 7 9 8 11 11 15 16 21 22 22 21 21 20 20 15 12 10 9 8 7 5 7 9 15 21 22 20 16 16 19
10 14 11 10 14 15 7 5 6 8 6 4 3 4 1 12 7 7 7 9 12 16 16 17 20 18 15 13 13 13 11 9 10 11 13 16 17 19 16 15 14 15 14 18
5 3 11 14 6 11 9 11 13 7 5 1 13 12 7 11 9 11 10 10 11 11 11 12 11 9 6 10 10 10 10 11 12 15 17 19 17 15 16 13 10 12 12 15
4 3 4 9 13 11 4 13 5 5 3 8 6 7 7 9 8 17 24 16 12 11 9 9 7 5 8 9 10 9 9 9 13 13 15 17 16 14 16 17 18 15 14 16
13 5 13 6 15 17 14 16 10 12 7 7 5 12 3 7 22 30 27 22 16 13 13 13 11 10 10 11 10 10 10 10 11 12 13 14 11 13 13 15 16 19 19 19
11 8 3 4 6 18 13 10 10 7 2 4 7 5 6 13 16 25 28 24 20 15 13 14 13 13 15 15 16 16 15 14 13 14 14 13 14 13 14 14 15 15 16 17
12 7 3 6 6 1 12 15 6 3 7 10 8 7 9 27 25 19 23 30 27 20 17 15 16 18 21 23 24 23 24 24 26 24 25 26 25 26 25 23 22 23 23 20
9 7 6 9 12 16 7 8 8 6 8 9 5 10 5 26 30 28 30 34 31 26 22 20 20 22 25 28 29 31 32 32 32 32 32 30 31 31 30 31 32 33 32 34
7 9 7 9 4 2 3 11 13 9 9 6 3 8 10 13 36 43 38 38 33 28 27 24 24 25 27 28 30 31 31 29 31 31 28 29 29 29 30 31 32 32 33 34
14 2 7 7 9 1 9 10 9 7 5 12 9 7 7 24 29 39 49 44 38 33 30 27 26 26 28 30 31 32 31 31 30 28 27 27 28 28 30 31 32 32 32 34
11 6 10 17 5 11 13 11 11 9 6 7 10 7 11 18 25 38 45 49 43 35 30 29 29 29 30 32 32 30 29 27 26 24 24 25 27 30 30 30 31 32 34 34
10 10 7 3 4 3 7 15 21 19 16 15 12 16 20 35 29 47 56 55 49 42 36 33 32 33 32 31 29 27 25 23 23 22 22 26 26 27 27 28 31 33 34 36
2 8 7 4 5 6 1 9 15 12 9 5 11 11 3 44 46 49 58 62 55 48 42 39 36 35 34 29 26 22 21 20 20 19 21 23 22 23 25 27 28 29 32 35
11 11 6 6 6 2 10 21 17 11 9 17 17 11 22 27 46 61 64 66 62 54 48 44 42 39 35 30 23 19 17 17 17 20 22 22 24 25 28 31 33 37 40 43
17 10 4 6 6 9 3 2 2 11 8 10 7 21 42 43 45 54 69 74 63 55 51 47 45 42 36 28 22 15 13 13 16 19 20 22 24 27 29 32 35 38 41 44
4 12 7 9 9 9 6 11 14 16 15 18 15 19 31 54 45 36 62 62 58 54 50 47 45 41 36 27 19 12 8 9 13 14 16 19 21 23 26 28 31 33 34 37
9 9 7 7 11 16 5 7 10 7 11 32 39 39 55 54 16 12 68 63 56 51 52 54 49 42 33 26 17 10 3 4 7 10 12 14 17 20 24 28 31 36 40 44
8 6 10 6 5 14 9 15 13 11 10 33 46 64 65 22 11 44 74 63 56 56 57 52 46 39 33 25 18 11 6 4 7 10 12 14 17 21 26 32 36 41 45 49
11 12 7 6 5 15 26 13 18 5 8 39 50 63 60 29 29 68 78 70 65 63 60 53 48 42 34 27 20 13 9 6 6 8 10 13 18 23 26 30 35 40 48 55
4 10 10 15 12 2 45 4 24 13 28 42 55 62 66 49 50 76 78 72 67 63 59 53 47 42 35 28 22 16 10 7 7 7 9 14 19 22 26 30 37 46 52 54
6 8 5 5 4 7 41 13 26 18 26 41 49 65 68 57 59 76 75 71 67 63 59 54 48 42 35 29 23 16 12 10 9 8 10 13 16 20 25 34 41 44 47 51
5 16 11 8 7 4 22 48 30 26 30 42 45 57 63 56 66 74 74 71 67 62 55 49 44 38 32 27 22 18 16 14 12 12 11 11 14 20 28 34 36 39 43 49
19 14 11 12 31 17 17 66 46 43 47 50 56 61 55 53 69 74 71 66 61 58 54 48 41 36 32 27 24 22 20 19 18 14 12 12 15 22 25 25 28 32 34 35
Wind_Direction_500mb
167 112 171 189 182 161 179 243 256 159 220 93 90 75 30 39 51 53 65 70 75 77 81 89 93 102 114 123 137 157 206 264 270 271 323 338 354 360 0 8 15 20 20 12
68 200 207 158 182 121 56 167 234 294 97 79 132 93 78 55 56 60 66 64 65 74 82 81 90 96 104 102 99 100 103 111 122 86 23 6 0 357 4 13 23 30 26 19
160 200 162 154 164 214 199 186 192 177 114 59 129 188 191 63 79 74 76 78 80 75 77 78 80 80 89 92 89 93 101 106 91 63 33 16 7 20 22 34 34 33 24 23
176 134 157 151 157 153 209 210 135 116 122 212 205 251 212 159 112 77 75 80 81 84 91 90 85 75 79 84 87 90 90 90 82 64 51 39 36 35 35 35 42 35 24 22
187 150 153 155 178 163 190 143 129 127 159 61 263 32 194 140 195 162 142 124 97 94 91 85 75 80 73 88 88 82 73 73 68 59 49 62 61 54 45 37 37 49 25 21
126 134 152 187 136 141 129 57 48 63 112 264 213 164 228 188 187 162 163 148 131 115 106 96 82 81 99 82 89 85 72 66 61 58 60 60 57 49 41 34 17 28 5 1
111 168 223 144 100 42 80 85 21 360 344 219 138 174 253 152 145 158 156 143 129 141 137 121 125 135 112 106 97 90 78 68 56 51 56 60 52 47 43 35 18 8 351 348
152 218 177 185 154 170 163 160 155 186 206 222 130 221 213 118 117 132 140 137 132 125 124 124 118 111 103 97 94 85 73 66 57 46 45 41 50 51 42 27 12 6 4 0
147 210 42 191 141 145 176 191 192 101 339 98 208 289 181 144 140 138 141 145 135 130 125 118 113 109 101 93 83 76 70 67 65 58 57 52 41 30 22 10 352 347 349 345
195 125 180 157 121 340 153 156 120 95 183 227 217 248 224 193 181 163 157 154 146 143 138 125 112 103 98 93 89 88 85 81 74 71 67 63 58 53 49 44 40 32 22 6
136 99 193 135 204 170 164 180 196 144 173 196 179 247 22 192 175 170 165 166 157 154 142 131 117 107 102 100 98 94 90 86 82 75 72 69 65 60 54 49 44 39 33 29
182 119 152 194 254 237 222 208 184 167 208 230 224 269 330 159 165 156 159 166 162 156 144 137 128 118 113 108 104 97 92 87 79 72 68 64 61 56 52 46 42 37 31 27
178 275 87 25 342 345 203 197 186 122 97 200 158 251 45 115 139 156 156 165 164 158 151 145 136 131 124 116 108 100 93 85 80 74 66 60 55 49 43 37 32 28 24 20
130 133 169 192 177 140 195 185 183 172 169 171 218 178 205 178 160 157 161 169 167 163 157 150 142 135 127 120 112 105 96 84 72 63 55 49 42 39 36 32 29 25 24 21
143 141 156 173 351 160 182 181 181 197 203 190 202 192 198 190 174 170 170 171 169 167 163 157 150 144 136 127 120 110 97 83 67 53 47 45 39 37 35 33 30 26 21 18
123 128 136 159 178 62 256 221 199 188 170 148 151 237 154 167 161 165 172 174 174 173 168 164 160 153 145 140 128 113 94 77 60 49 46 47 44 39 34 31 26 19 15 12
130 134 136 213 147 129 293 215 196 191 190 156 189 180 145 155 174 177 173 177 178 177 174 170 166 160 156 148 132 118 93 68 51 42 40 37 34 28 25 21 16 13 10 7
164 117 83 126 127 238 218 17 287 177 208 176 109 159 170 177 175 172 182 181 182 180 176 173 169 166 162 153 143 119 87 58 41 31 30 29 27 22 18 13 10 9 6 2
109 158 143 176 186 294 260 200 173 179 245 180 155 131 123 135 137 160 189 189 185 183 179 175 171 169 164 158 149 127 87 48 30 22 24 25 22 17 12 7 6 4 3 1
92 93 140 152 162 203 243 163 161 132 288 180 156 155 147 144 162 196 185 187 185 183 179 174 171 169 168 164 162 155 139 24 3 12 20 20 17 11 5 5 5 4 2 359
134 93 154 162 204 285 183 161 145 117 238 163 165 160 159 172 177 173 175 180 184 180 177 176 174 174 174 177 182 191 214 292 343 4 9 8 7 5 4 4 1 360 357 353
158 145 166 93 100 269 156 119 168 187 114 166 168 169 163 158 148 166 172 175 177 176 176 178 179 181 184 190 198 208 229 274 327 347 351 356 359 360 0 357 354 351 350 350
212 179 173 183 207 246 177 121 190 176 162 171 174 174 174 163 163 170 171 175 176 179 178 181 184 186 190 198 207 217 236 273 307 320 337 345 347 348 350 350 351 351 349 347
262 177 174 76 244 218 202 200 185 180 181 176 181 178 180 170 170 172 172 174 177 181 183 183 186 192 198 204 211 223 241 263 278 294 313 323 332 340 346 351 352 350 351 353
159 143 166 274 265 283 230 209 195 182 178 176 179 182 183 182 175 173 175 179 182 182 184 189 193 197 202 209 219 231 245 257 259 263 282 306 321 339 348 349 352 358 358 357
191 173 170 215 195 186 209 205 191 191 185 184 180 180 184 186 177 179 180 182 183 185 188 191 196 201 209 217 226 233 241 243 242 253 274 293 324 335 344 356 360 359 359 356
Wind_Speed_850mb
12 8 10 17 15 19 33 10 21 9 5 13 10 9 13 20 30 29 32 34 39 36 33 34 34 30 30 22 16 9 4 2 2 1 4 8 13 19 21 19 16 14 16 19
8 13 17 10 6 5 7 31 30 11 7 11 7 8 10 16 14 19 26 28 24 26 28 30 25 21 21 15 12 7 5 5 4 3 5 10 15 19 18 17 14 13 17 20
16 10 20 12 8 5 3 8 15 11 6 10 13 3 8 6 17 22 22 24 19 24 28 25 21 22 17 13 13 10 9 8 7 8 9 10 11 13 13 16 15 14 16 21
9 8 20 15 8 10 6 8 12 8 7 7 7 8 7 9 8 11 11 15 16 21 22 22 21 21 20 20 15 12 10 9 8 7 5 7 9 15 21 22 20 16 16 19
10 14 11 10 14 15 7 5 6 8 6 4 3 4 1 12 7 7 7 9 12 16 16 17 20 18 15 13 13 13 11 9 10 11 13 16 17 19 16 15 14 15 14 18
5 3 11 14 6 11 9 11 13 7 5 1 13 12 7 11 9 11 10 10 11 11 11 12 11 9 6 10 10 10 10 11 12 15 17 19 17 15 16 13 10 12 12 15
4 3 4 9 13 11 4 13 5 5 3 8 6 7 7 9 8 17 24 16 12 11 9 9 7 5 8 9 10 9 9 9 13 13 15 17 16 14 16 17 18 15 14 16
13 5 13 6 15 17 14 16 10 12 7 7 5 12 3 7 22 30 27 22 16 13 13 13 11 10 10 11 10 10 10 10 11 12 13 14 11 13 13 15 16 19 19 19
11 8 3 4 6 18 13 10 10 7 2 4 7 5 6 13 16 25 28 24 20 15 13 14 13 13 15 15 16 16 15 14 13 14 14 13 14 13 14 14 15 15 16 17
12 7 3 6 6 1 12 15 6 3 7 10 8 7 9 27 25 19 23 30 27 20 17 15 16 18 21 23 24 23 24 24 26 24 25 26 25 26 25 23 22 23 23 20
9 7 6 9 12 16 7 8 8 6 8 9 5 10 5 26 30 28 30 34 31 26 22 20 20 22 25 28 29 31 32 32 32 32 32 30 31 31 30 31 32 33 32 34
7 9 7 9 4 2 3 11 13 9 9 6 3 8 10 13 36 43 38 38 33 28 27 24 24 25 27 28 30 31 31 29 31 31 28 29 29 29 30 31 32 32 33 34
14 2 7 7 9 1 9 10 9 7 5 12 9 7 7 24 29 39 49 44 38 33 30 27 26 26 28 30 31 32 31 31 30 28 27 27 28 28 30 31 32 32 32 34
11 6 10 17 5 11 13 11 11 9 6 7 10 7 11 18 25 38 45 49 43 35 30 29 29 29 30 32 32 30 29 27 26 24 24 25 27 30 30 30 31 32 34 34
10 10 7 3 4 3 7 15 21 19 16 15 12 16 20 35 29 47 56 55 49 42 36 33 32 33 32 31 29 27 25 23 23 22 22 26 26 27 27 28 31 33 34 36
2 8 7 4 5 6 1 9 15 12 9 5 11 11 3 44 46 49 58 62 55 48 42 39 36 35 34 29 26 22 21 20 20 19 21 23 22 23 25 27 28 29 32 35
11 11 6 6 6 2 10 21 17 11 9 17 17 11 22 27 46 61 64 66 62 54 48 44 42 39 35 30 23 19 17 17 17 20 22 22 24 25 28 31 33 37 40 43
17 10 4 6 6 9 3 2 2 11 8 10 7 21 42 43 45 54 69 74 63 55 51 47 45 42 36 28 22 15 13 13 16 19 20 22 24 27 29 32 35 38 41 44
4 12 7 9 9 9 6 11 14 16 15 18 15 19 31 54 45 36 62 62 58 54 50 47 45 41 36 27 19 12 8 9 13 14 16 19 21 23 26 28 31 33 34 37
9 9 7 7 11 16 5 7 10 7 11 32 39 39 55 54 16 12 68 63 56 51 52 54 49 42 33 26 17 10 3 4 7 10 12 14 17 20 24 28 31 36 40 44
8 6 10 6 5 14 9 15 13 11 10 33 46 64 65 22 11 44 74 63 56 56 57 52 46 39 33 25 18 11 6 4 7 10 12 14 17 21 26 32 36 41 45 49
11 12 7 6 5 15 26 13 18 5 8 39 50 63 60 29 29 68 78 70 65 63 60 53 48 42 34 27 20 13 9 6 6 8 10 13 18 23 26 30 35 40 48 55
4 10 10 15 12 2 45 4 24 13 28 42 55 62 66 49 50 76 78 72 67 63 59 53 47 42 35 28 22 16 10 7 7 7 9 14 19 22 26 30 37 46 52 54
6 8 5 5 4 7 41 13 26 18 26 41 49 65 68 57 59 76 75 71 67 63 59 54 48 42 35 29 23 16 12 10 9 8 10 13 16 20 25 34 41 44 47 51
5 16 11 8 7 4 22 48 30 26 30 42 45 57 63 56 66 74 74 71 67 62 55 49 44 38 32 27 22 18 16 14 12 12 11 11 14 20 28 34 36 39 43 49
19 14 11 12 31 17 17 66 46 43 47 50 56 61 55 53 69 74 71 66 61 58 54 48 41 36 32 27 24 22 20 19 18 14 12 12 15 22 25 25 28 32 34 35
Wind_Direction_850mb
167 112 171 189 182 161 179 243 256 159 220 93 90 75 30 39 51 53 65 70 75 77 81 89 93 102 114 123 137 157 206 264 270 271 323 338 354 360 0 8 15 20 20 12
68 200 207 158 182 121 56 167 234 294 97 79 132 93 78 55 56 60 66 64 65 74 82 81 90 96 104 102 99 100 103 111 122 86 23 6 0 357 4 13 23 30 26 19
160 200 162 154 164 214 199 186 192 177 114 59 129 188 191 63 79 74 76 78 80 75 77 78 80 80 89 92 89 93 101 106 91 63 33 16 7 20 22 34 34 33 24 23
176 134 157 151 157 153 209 210 135 116 122 212 205 251 212 159 112 77 75 80 81 84 91 90 85 75 79 84 87 90 90 90 82 64 51 39 36 35 35 35 42 35 24 22
187 150 153 155 178 163 190 143 129 127 159 61 263 32 194 140 195 162 142 124 97 94 91 85 75 80 73 88 88 82 73 73 68 59 49 62 61 54 45 37 37 49 25 21
126 134 152 187 136 141 129 57 48 63 112 264 213 164 228 188 187 162 163 148 131 115 106 96 82 81 99 82 89 85 72 66 61 58 60 60 57 49 41 34 17 28 5 1
111 168 223 144 100 42 80 85 21 360 344 219 138 174 253 152 145 158 156 143 129 141 137 121 125 135 112 106 97 90 78 68 56 51 56 60 52 47 43 35 18 8 351 348
152 218 177 185 154 170 163 160 155 186 206 222 130 221 213 118 117 132 140 137 132 125 124 124 118 111 103 97 94 85 73 66 57 46 45 41 50 51 42 27 12 6 4 0
147 210 42 191 141 145 176 191 192 101 339 98 208 289 181 144 140 138 141 145 135 130 125 118 113 109 101 93 83 76 70 67 65 58 57 52 41 30 22 10 352 347 349 345
195 125 180 157 121 340 153 156 120 95 183 227 217 248 224 193 181 163 157 154 146 143 138 125 112 103 98 93 89 88 85 81 74 71 67 63 58 53 49 44 40 32 22 6
136 99 193 135 204 170 164 180 196 144 173 196 179 247 22 192 175 170 165 166 157 154 142 131 117 107 102 100 98 94 90 86 82 75 72 69 65 60 54 49 44 39 33 29
182 119 152 194 254 237 222 208 184 167 208 230 224 269 330 159 165 156 159 166 162 156 144 137 128 118 113 108 104 97 92 87 79 72 68 64 61 56 52 46 42 37 31 27
178 275 87 25 342 345 203 197 186 122 97 200 158 251 45 115 139 156 156 165 164 158 151 145 136 131 124 116 108 100 93 85 80 74 66 60 55 49 43 37 32 28 24 20
130 133 169 192 177 140 195 185 183 172 169 171 218 178 205 178 160 157 161 169 167 163 157 150 142 135 127 120 112 105 96 84 72 63 55 49 42 39 36 32 29 25 24 21
143 141 156 173 351 160 182 181 181 197 203 190 202 192 198 190 174 170 170 171 169 167 163 157 150 144 136 127 120 110 97 83 67 53 47 45 39 37 35 33 30 26 21 18
123 128 136 159 178 62 256 221 199 188 170 148 151 237 154 167 161 165 172 174 174 173 168 164 160 153 145 140 128 113 94 77 60 49 46 47 44 39 34 31 26 19 15 12
130 134 136 213 147 129 293 215 196 191 190 156 189 180 145 155 174 177 173 177 178 177 174 170 166 160 156 148 132 118 93 68 51 42 40 37 34 28 25 21 16 13 10 7
164 117 83 126 127 238 218 17 287 177 208 176 109 159 170 177 175 172 182 181 182 180 176 173 169 166 162 153 143 119 87 58 41 31 30 29 27 22 18 13 10 9 6 2
109 158 143 176 186 294 260 200 173 179 245 180 155 131 123 135 137 160 189 189 185 183 179 175 171 169 164 158 149 127 87 48 30 22 24 25 22 17 12 7 6 4 3 1
92 93 140 152 162 203 243 163 161 132 288 180 156 155 147 144 162 196 185 187 185 183 179 174 171 169 168 164 162 155 139 24 3 12 20 20 17 11 5 5 5 4 2 359
134 93 154 162 204 285 183 161 145 117 238 163 165 160 159 172 177 173 175 180 184 180 177 176 174 174 174 177 182 191 214 292 343 4 9 8 7 5 4 4 1 360 357 353
158 145 166 93 100 269 156 119 168 187 114 166 168 169 163 158 148 166 172 175 177 176 176 178 179 181 184 190 198 208 229 274 327 347 351 356 359 360 0 357 354 351 350 350
212 179 173 183 207 246 177 121 190 176 162 171 174 174 174 163 163 170 171 175 176 179 178 181 184 186 190 198 207 217 236 273 307 320 337 345 347 348 350 350 351 351 349 347
262 177 174 76 244 218 202 200 185 180 181 176 181 178 180 170 170 172 172 174 177 181 183 183 186 192 198 204 211 223 241 263 278 294 313 323 332 340 346 351 352 350 351 353
159 143 166 274 265 283 230 209 195 182 178 176 179 182 183 182 175 173 175 179 182 182 184 189 193 197 202 209 219 231 245 257 259 263 282 306 321 339 348 349 352 358 358 357
191 173 170 215 195 186 209 205 191 191 185 184 180 180 184 186 177 179 180 182 183 185 188 191 196 201 209 217 226 233 241 243 242 253 274 293 324 335 344 356 360 359 359 356